Weather Roundup
Issued by NWS

Home | Current Version | Previous Version | Graphics & Text | Print | Product List | Glossary Off
Versions: 1 2 3 4 5 6 7 8 9 10 11 12 13 14 15 16 17 18 19 20 21 22 23 24 25 26 27 28 29 30 31 32 33 34 35 36 37 38 39 40 41 42 43 44 45 46 47 48 49 50

000
NZUS93 KARX 230310
HRRWXR

CURRENT HOURLY OBSERVATIONS ACROSS
MUCH OF THE UPPER MISSISSIPPI VALLEY
NATIONAL WEATHER SERVICE LA CROSSE WI
1000 PM CDT FRI AUG 22 2014


...SOUTHEAST MINNESOTA...


CITY           SKY/WX    TMP DP  RH WIND       PRES   REMARKS
ROCHESTER      MOCLDY    73  69  87 NE8       30.03R
ROCHESTER/MAYO FAIR      73  67  83 N3        30.02S
WINONA         MOCLDY    75  72  88 CALM      29.99R
AUSTIN         CLOUDY    73  70  88 NE5       30.01S
ALBERT LEA     MOCLDY    73  70  88 NE8       30.01S
DODGE CENTER   PTCLDY    72  70  94 N7        30.02F FOG
PRESTON        MOCLDY    72  72 100 N6        30.02S
OWATONNA       PTCLDY    72  68  88 NE6       30.02S
FARIBAULT      PTCLDY    72  66  83 NE3       30.02F
$$

...ELSEWHERE IN MINNESOTA...


CITY           SKY/WX    TMP DP  RH WIND       PRES   REMARKS
MINNEAPOLIS    PTCLDY    73  67  81 NE7       30.02R
INTNL FALLS    CLOUDY    68  65  90 N3        30.06R
DULUTH         FOG       62  60  93 E7        30.07R VSB 1/2
RED WING       MOCLDY    72  68  88 CALM      30.01R
REDWOOD FALLS  MOCLDY    76  70  82 E6        30.00S
MANKATO        PTCLDY    73  64  73 NE9       30.00F
WORTHINGTON      N/A     70  70 100 E5        30.03S
FAIRMONT       MOCLDY    66  66 100 NE6       30.01S
$$

...SOUTHWEST WISCONSIN...


CITY           SKY/WX    TMP DP  RH WIND       PRES   REMARKS
LA CROSSE      PTCLDY    76  73  91 N6        29.97R
PRAIRIE DU CHI MOCLDY    78  75  90 CALM      29.96R
BOSCOBEL       MOCLDY    78  75  90 CALM      29.96R FOG
LONE ROCK      PTCLDY    80  74  81 CALM      29.96R
PLATTEVILLE    PTCLDY    78  76  94 S5        29.99S
FORT MC COY    PTCLDY    72  70  95 CALM      30.00R
CAMP DOUGLAS   CLEAR     73  73 100 W5        29.99R
VIROQUA        FAIR      75  75 100 N5        30.01R
WIS DELLS      PTCLDY    76  72  89 CALM      29.98R
$$

...ELSEWHERE IN WISCONSIN...


CITY           SKY/WX    TMP DP  RH WIND       PRES   REMARKS
MILWAUKEE      FOG       70  69  97 NE6       30.00S VSB 1/4
MADISON        PTCLDY    78  74  87 E10       29.97R
GREEN BAY      PTCLDY    71  69  93 E6        30.00R
EAU CLAIRE     PTCLDY    72  70  93 N6        30.00S
BLACK RVR FLS  FAIR      69  69 100 CALM      29.98R FOG
MEDFORD        CLOUDY    71  70  98 CALM      30.03R FOG
WAUSAU         MOCLDY    73  71  93 CALM      30.00R FOG
WIS RAPIDS     MOCLDY    77  73  87 E5        30.00R
MARSHFIELD     CLEAR     74  71  91 NE9       30.00R FOG
RICE LAKE      CLOUDY    71  68  90 N5        30.04S
$$

...NORTHEAST IOWA...


CITY           SKY/WX    TMP DP  RH WIND       PRES   REMARKS
WATERLOO       CLOUDY    75  72  90 CALM      29.94F
DUBUQUE        CLOUDY    77  76  96 SW7       30.00R
DECORAH        CLOUDY    77  73  88 N5        29.98F
MASON CITY     CLOUDY    75  72  90 N8        29.99F
CHARLES CITY   CLOUDY    77  73  88 N6        29.99F
OELWEIN        CLOUDY    77  68  73 E5G12     29.97F
$$

...ELSEWHERE IN IOWA...


CITY           SKY/WX    TMP DP  RH WIND       PRES   REMARKS
DES MOINES     CLOUDY    82  75  79 CALM      29.92F
IOWA CITY      MOCLDY    76  75  97 CALM      29.96S
FORT DODGE     CLOUDY    72  70  94 NE6       29.97R
MARSHALLTOWN   CLOUDY    78  75  90 E5        29.94F
CEDAR RAPIDS   MOCLDY    75  75 100 CALM      29.96S
$$

...NORTHERN ILLINOIS...


CITY           SKY/WX    TMP DP  RH WIND       PRES   REMARKS
CHICAGO-OHARE  MOCLDY    79  70  74 CALM      29.98R
DUPAGE         CLOUDY    77  73  87 CALM      29.99R
CHICAGO-MIDWAY MOCLDY    82  75  79 S3        29.98R
MOLINE         CLEAR     74  72  93 SE3       29.96S
ROCKFORD       PTCLDY    76  73  91 CALM      29.99R
STERLING       MOCLDY    77  73  88 CALM      29.97S
PEORIA         PTCLDY    79  74  84 E3        29.98R
$$

NOTE: "FAIR" INDICATES FEW OR NO CLOUDS BELOW 12,000 FEET WITH NO
SIGNIFICANT WEATHER AND/OR OBSTRUCTIONS TO VISIBILITY. WIND
SPEEDS ARE IN MILES-PER-HOUR.



USA.gov is the U.S. government's official web portal to all federal, state and local government web resources and services.